[[{"header":{"parameterUnit":"m.s-1","parameterCategory":1,"la1":30.2991,"la2":30.254,"lo1":-89.0895,"lo2":-89.0444,"dy":0.0017,"dx":0.0017,"nx":28,"ny":28,"refTime":"2024-12-04T03:00:00:Z","depth":0,"parameterNumber":2,"parameterNumberName":"U-component_of_WINDS"},"data":[0,0,0,0,0,0,0,0,0,0,0,0,0,0,0,0,0,0,0,0,0,0,0,0,0,0,0,0,0,0,0,0,0,0,0,0,0,0,0,0,0,0,0,0,0,0,0,0,0,0,0,0,0,0,0,0,0,0,0.5513,0.5513,0,0.5567,0.5568,0.5569,0.5544,0.5542,0.5541,0.554,0.5591,0.5593,0.5596,0,0,0,0,0,0,0,0,0,0,0,0,0,0.5383,0.5386,0.5513,0.5513,0.5514,0.5567,0.5568,0.5569,0.5544,0.5542,0.5541,0.5539,0.559,0.5593,0.5596,0,0,0,0,0,0,0,0,0,0,0,0,0,0.5439,0.5387,0.5513,0.5508,0.5508,0.5567,0.5568,0.5569,0.5544,0.5542,0.554,0.5538,0.5589,0.5593,0.5597,0.5661,0,0,0.5609,0.561,0,0,0,0,0,0,0,0,0.5436,0.5444,0.5508,0.5509,0.5509,0.5547,0.5541,0.56,0.5545,0.5531,0.554,0.5537,0.5578,0.5582,0.5597,0.5664,0.5666,0.5609,0.5611,0.5613,0.5614,0,0,0,0,0,0,0,0.5432,0.5441,0.5534,0.5509,0.551,0.5502,0.5508,0.5552,0.5565,0.5532,0.553,0.5537,0.5577,0.5593,0.5598,0.5667,0.5609,0.5612,0.5615,0.5616,0.579,0.5792,0,0,0,0,0,0,0.5429,0.5438,0.5532,0.5536,0.5467,0.5506,0.5513,0.5537,0.5564,0.5566,0.5539,0.5536,0.5587,0.5593,0.56,0.5678,0.5613,0.5617,0.5619,0.5788,0.5791,0.5793,0,0,0,0,0,0,0.5426,0.5437,0.553,0.5487,0.5498,0.5511,0.5538,0.5539,0.5555,0.557,0.5571,0.5553,0.5586,0.5594,0.5647,0.5679,0.5619,0.5622,0.5785,0.5789,0.5792,0.5834,0,0,0,0,0,0,0.5422,0.5437,0.5462,0.5487,0.55,0.5578,0.554,0.5541,0.5562,0.5559,0.5583,0.5585,0.5585,0.5641,0.5651,0.5683,0.5625,0.5783,0.5787,0.5791,0.5829,0.5838,0.5845,0,0,0,0,0,0.5418,0.547,0.5463,0.5475,0.5533,0.558,0.5587,0.5587,0.5565,0.559,0.56,0.5584,0.5674,0.5647,0.5657,0.5691,0.578,0.5786,0.5791,0.5826,0.5836,0.5845,0,0,0,0,0,0,0.5446,0.5473,0.5466,0.5529,0.5552,0.5575,0.5607,0.5598,0.5627,0.5622,0.562,0.5626,0.5681,0.5691,0.566,0.5756,0.5724,0.5731,0.5747,0.5757,0.5765,0.5761,0.5628,0,0,0,0,0,0.546,0.5497,0.5519,0.5571,0.5584,0.5594,0.5614,0.5613,0.5636,0.5645,0.5659,0.5681,0.5715,0.5736,0.5768,0.5831,0.5836,0.586,0.5868,0.5875,0.5881,0.5915,0.5926,0.581,0.581,0.581,0,0,0.5488,0.5508,0.5531,0.5578,0.5596,0.5633,0.5602,0.5643,0.567,0.5651,0.5702,0.5713,0.5738,0.5797,0.5823,0.5807,0.5914,0.5881,0.5886,0.5889,0.5922,0.5933,0.5943,0.5813,0.5813,0.5812,0,0,0.5558,0.5577,0.5624,0.5644,0.5672,0.5679,0.569,0.5715,0.5723,0.5774,0.5761,0.5793,0.585,0.5869,0.5886,0.5966,0.5953,0.5976,0.6017,0.6051,0.606,0.6069,0.6097,0.6107,0.5982,0.5982,0.5983,0,0.5589,0.5647,0.5648,0.5691,0.5712,0.5699,0.5746,0.5764,0.5801,0.5815,0.5797,0.587,0.5886,0.5949,0.5969,0.5983,0.5995,0.5973,0.6059,0.6067,0.6075,0.6102,0.6113,0.5985,0.5985,0.5985,0.5984,0,0.5683,0.5723,0.5757,0.5796,0.5821,0.5865,0.5873,0.5897,0.5894,0.5902,0.5955,0.5974,0.601,0.6025,0.6021,0.6088,0.6077,0.606,0.6027,0.6089,0.6114,0.6124,0.5989,0.5988,0.5987,0.5986,0,0,0.5771,0.5812,0.5824,0.5842,0.5874,0.5904,0.5948,0.5985,0.6006,0.6032,0.6068,0.6118,0.6103,0.6122,0.6121,0.6151,0.6213,0.613,0.613,0.6144,0.6288,0.63,0.6312,0.6205,0.6207,0.6209,0.6286,0,0.5843,0.5922,0.5926,0.5997,0.6034,0.6023,0.6062,0.6085,0.6094,0.6126,0.6135,0.6171,0.6148,0.616,0.6189,0.6199,0.6242,0.6194,0.6238,0.6239,0.6232,0.6326,0.6339,0.641,0.6295,0.6297,0.6298,0,0.5938,0.597,0.6046,0.6074,0.6089,0.6124,0.6158,0.619,0.6216,0.622,0.6243,0.6238,0.6282,0.6249,0.6309,0.6277,0.6295,0.6303,0.6306,0.6309,0.6272,0.6331,0.6433,0.6443,0.6314,0.6313,0.6312,0,0.5994,0.6056,0.6109,0.6125,0.6159,0.6184,0.6199,0.6223,0.6245,0.6275,0.629,0.6323,0.6342,0.6368,0.6371,0.6347,0.6432,0.6399,0.6436,0.6436,0.6454,0.6452,0.6559,0.6467,0.6467,0.6466,0.6466,0,0.6074,0.6121,0.6135,0.6168,0.622,0.6224,0.6275,0.6288,0.631,0.6344,0.6337,0.6369,0.6372,0.6405,0.6408,0.6458,0.6466,0.647,0.647,0.6471,0.647,0.6482,0.6477,0.6469,0.6469,0.6468,0.6467,0,0.6145,0.6157,0.6215,0.6243,0.6252,0.6289,0.6312,0.6343,0.6353,0.6396,0.6407,0.6421,0.6459,0.6466,0.6511,0.6513,0.6572,0.6567,0.6564,0.6563,0.66,0.6596,0.6717,0.6733,0.6631,0.6632,0.6633,0,0.6195,0.6231,0.6265,0.6288,0.6305,0.6343,0.6367,0.6372,0.6397,0.643,0.6457,0.6495,0.6526,0.6588,0.6601,0.6636,0.6631,0.6672,0.6636,0.6636,0.6631,0.6629,0.6633,0.6678,0.6679,0.668,0.6681,0,0.6282,0.6287,0.6322,0.636,0.6389,0.6419,0.6447,0.6466,0.6475,0.6503,0.6544,0.6568,0.6615,0.6653,0.6688,0.6701,0.6692,0.6692,0.6702,0.6703,0.6699,0.6701,0.6582,0.6689,0.6688,0.6687,0.6687,0.6687,0.6344,0.6376,0.6405,0.6445,0.6467,0.6494,0.6525,0.654,0.6574,0.6615,0.6616,0.666,0.6686,0.6732,0.6748,0.6782,0.6769,0.6784,0.6788,0.6791,0.6795,0.6695,0.6789,0.6788,0.6788,0.6788,0.6788,0,0.6431,0.645,0.6487,0.6527,0.6559,0.6551,0.6582,0.6608,0.6648,0.6674,0.6705,0.6752,0.6789,0.6806,0.6843,0.6867,0.6864,0.6876,0.6874,0.6877,0.6804,0.6792,0.6878,0.6878,0.6878,0.6878,0.6878,0.6878,0.6479,0.6534,0.6542,0.6607,0.6625,0.6671,0.6689,0.6713,0.6735,0.6788,0.682,0.6832,0.6854,0.6893,0.6926,0.693,0.6944,0.6958,0.696,0.6891,0.6882,0.6873,0.6862,0.6961,0.6961,0.703,0.7031,0.7031]},{"header":{"parameterUnit":"m.s-1","parameterCategory":1,"la1":30.2991,"la2":30.254,"lo1":-89.0895,"lo2":-89.0444,"dy":0.0017,"dx":0.0017,"nx":28,"ny":28,"refTime":"2024-12-04T03:00:00:Z","depth":0,"parameterNumber":3,"parameterNumberName":"V-component_of_WINDS"},"data":[0,0,0,0,0,0,0,0,0,0,0,0,0,0,0,0,0,0,0,0,0,0,0,0,0,0,0,0,0,0,0,0,0,0,0,0,0,0,0,0,0,0,0,0,0,0,0,0,0,0,0,0,0,0,0,0,0,0,4.0559,4.056,0,4.0634,4.0635,4.0636,4.0568,4.0566,4.0563,4.056,4.063,4.0635,4.0639,0,0,0,0,0,0,0,0,0,0,0,0,0,4.0353,4.0357,4.0559,4.056,4.0561,4.0634,4.0635,4.0636,4.0569,4.0566,4.0562,4.0559,4.0629,4.0634,4.0639,0,0,0,0,0,0,0,0,0,0,0,0,0,4.0437,4.0359,4.0559,4.0537,4.0535,4.0634,4.0635,4.0636,4.057,4.0565,4.0561,4.0558,4.0627,4.0634,4.064,4.0762,0,0,4.066,4.0663,0,0,0,0,0,0,0,0,4.0432,4.0444,4.0539,4.0538,4.0537,4.0588,4.0588,4.0678,4.0571,4.0556,4.056,4.0556,4.0619,4.0626,4.0649,4.0766,4.0769,4.0661,4.0665,4.0668,4.067,0,0,0,0,0,0,0,4.0426,4.0441,4.0589,4.054,4.0539,4.0521,4.0528,4.0605,4.0609,4.0557,4.0553,4.0563,4.0618,4.0643,4.065,4.077,4.0661,4.0667,4.0671,4.0673,4.0992,4.0996,0,0,0,0,0,0,4.0424,4.0436,4.0586,4.0591,4.0474,4.0528,4.0536,4.0576,4.0608,4.061,4.0566,4.0559,4.0633,4.0642,4.0652,4.0799,4.0668,4.0674,4.0678,4.0987,4.0993,4.0998,0,0,0,0,0,0,4.0419,4.0438,4.0583,4.0512,4.053,4.0536,4.0581,4.0579,4.0604,4.0615,4.0615,4.0591,4.0631,4.0643,4.0736,4.08,4.0677,4.0683,4.0982,4.0989,4.0995,4.1093,0,0,0,0,0,0,4.0414,4.0437,4.0484,4.0514,4.0534,4.0668,4.0585,4.0584,4.0616,4.0608,4.0639,4.064,4.0628,4.0727,4.0743,4.0807,4.0688,4.0976,4.0985,4.0993,4.1084,4.1102,4.1117,0,0,0,0,0,4.0407,4.0507,4.0487,4.0506,4.0594,4.0672,4.0683,4.067,4.0622,4.0669,4.0677,4.0639,4.0791,4.0737,4.0754,4.0822,4.0972,4.0983,4.0992,4.1076,4.1098,4.1117,0,0,0,0,0,0,4.0482,4.051,4.0489,4.0602,4.0636,4.066,4.072,4.0693,4.0739,4.0729,4.0708,4.0716,4.0815,4.0827,4.0767,4.0942,4.0873,4.0887,4.0931,4.0952,4.0969,4.0964,4.0693,0,0,0,0,0,4.0512,4.0575,4.0596,4.0694,4.0712,4.0713,4.0747,4.0734,4.0766,4.078,4.0793,4.0825,4.088,4.0916,4.0967,4.1085,4.1091,4.1139,4.1156,4.117,4.1183,4.1247,4.1269,4.1031,4.1031,4.1031,0,0,4.0574,4.0598,4.0638,4.0709,4.0734,4.0798,4.0725,4.0796,4.0843,4.0789,4.088,4.0891,4.0925,4.1032,4.1079,4.1045,4.125,4.1183,4.1194,4.1199,4.126,4.1282,4.1302,4.1038,4.1036,4.1035,0,0,4.0721,4.0745,4.083,4.0857,4.0896,4.0896,4.0917,4.0947,4.0953,4.1044,4.1005,4.106,4.1154,4.1181,4.1206,4.1365,4.1332,4.1382,4.147,4.1533,4.1552,4.1568,4.1626,4.1647,4.1394,4.1394,4.1394,0,4.0793,4.0891,4.0877,4.0952,4.0984,4.0941,4.1027,4.1052,4.1105,4.1127,4.1088,4.1208,4.1227,4.134,4.1379,4.1401,4.1423,4.1379,4.155,4.1567,4.1582,4.1637,4.1659,4.14,4.14,4.1399,4.1398,0,4.0978,4.1046,4.111,4.1166,4.1205,4.1284,4.1281,4.1322,4.1306,4.131,4.1403,4.1425,4.1481,4.1506,4.1489,4.1617,4.1595,4.1554,4.1484,4.1611,4.1662,4.1683,4.1409,4.1407,4.1405,4.1403,0,0,4.1174,4.1222,4.1246,4.1271,4.1312,4.1363,4.144,4.1497,4.1534,4.1571,4.1635,4.1717,4.168,4.1709,4.1695,4.175,4.1876,4.1702,4.1703,4.1735,4.2019,4.2051,4.2076,4.1855,4.1858,4.1862,4.2017,0,4.1323,4.1461,4.1452,4.1581,4.1644,4.1604,4.1671,4.1703,4.1709,4.1762,4.1767,4.1826,4.1772,4.179,4.1842,4.185,4.1933,4.1838,4.1914,4.1917,4.1908,4.2102,4.2136,4.2282,4.2037,4.204,4.2043,0,4.1516,4.1565,4.1701,4.1734,4.176,4.1821,4.1873,4.1924,4.1959,4.1959,4.1993,4.197,4.2047,4.1976,4.2081,4.2017,4.2047,4.2055,4.206,4.2068,4.1988,4.2116,4.2328,4.235,4.2074,4.2071,4.2069,0,4.1648,4.1746,4.1841,4.1864,4.1903,4.1948,4.1966,4.1996,4.2032,4.2076,4.2099,4.2151,4.2179,4.2219,4.2211,4.2159,4.2319,4.2246,4.2321,4.2322,4.2357,4.2356,4.2578,4.2375,4.2374,4.2374,4.2373,0,4.1817,4.1902,4.1901,4.196,4.2054,4.2041,4.2134,4.2146,4.2174,4.2234,4.2201,4.2256,4.2241,4.2296,4.2289,4.2378,4.2391,4.2393,4.239,4.2397,4.2397,4.2417,4.2407,4.238,4.2378,4.2377,4.2376,0,4.198,4.1983,4.2084,4.2114,4.2124,4.2192,4.2217,4.2272,4.2276,4.2351,4.2368,4.2373,4.2436,4.2432,4.2502,4.2497,4.2608,4.2592,4.2598,4.2595,4.2671,4.2664,4.2915,4.2948,4.2722,4.2724,4.2726,0,4.2088,4.2154,4.2192,4.2231,4.2253,4.2316,4.2352,4.2342,4.2381,4.2426,4.2475,4.2536,4.2584,4.2686,4.2695,4.2749,4.2735,4.2819,4.2743,4.2748,4.2738,4.2735,4.2742,4.2835,4.2837,4.2839,4.2841,0,4.2281,4.228,4.2335,4.2393,4.2438,4.2482,4.2521,4.2554,4.2547,4.2593,4.2659,4.2697,4.277,4.283,4.2882,4.2898,4.2869,4.2865,4.2886,4.2894,4.2895,4.2897,4.264,4.286,4.2858,4.2856,4.2855,4.2855,4.2421,4.2478,4.2515,4.2578,4.2608,4.2646,4.27,4.2712,4.2767,4.2828,4.2817,4.2892,4.2924,4.2991,4.3012,4.3069,4.3038,4.3068,4.3075,4.3083,4.3093,4.2885,4.3078,4.3077,4.3077,4.3076,4.3076,0,4.2613,4.2636,4.2694,4.2753,4.2803,4.2773,4.2816,4.2859,4.2926,4.296,4.3009,4.3085,4.3144,4.3158,4.3214,4.3257,4.3245,4.3272,4.327,4.3274,4.3116,4.3094,4.3281,4.3281,4.3281,4.3281,4.3281,4.3281,4.2719,4.2815,4.2818,4.2928,4.2949,4.3024,4.3051,4.3086,4.3113,4.3201,4.3251,4.3261,4.3287,4.3345,4.3398,4.34,4.3423,4.3456,4.3453,4.3306,4.3285,4.3266,4.3244,4.3461,4.3461,4.3607,4.3608,4.361]}]]